This is the latest recevied weather packets stored in our database for station/object W6MAF. If no packets are shown the sender has not sent any weather packets the latest 10 day(s).
| Time | Temp. | Humidity | Pressure | Rain* | Wind** | Luminosity | Snow |
|---|---|---|---|---|---|---|---|
| 1777883157 | 7.22° C | 73% | - | 0 mm | 8.05 m/s, 180° | - | - |
| 1777882859 | 7.22° C | 74% | - | 0 mm | 6.71 m/s, 212° | - | - |
| 1777882561 | 7.22° C | 74% | - | 0 mm | 7.15 m/s, 198° | - | - |
| 1777882260 | 7.78° C | 74% | - | 0 mm | 5.36 m/s, 176° | - | - |
| 1777881963 | 7.78° C | 73% | - | 0 mm | 5.81 m/s, 191° | - | - |
| 1777881367 | 7.78° C | 73% | - | 0 mm | 6.71 m/s, 217° | - | - |
| 1777881071 | 7.78° C | 72% | - | 0 mm | 7.15 m/s, 198° | - | - |
| 1777880772 | 7.78° C | 72% | - | 0 mm | 6.71 m/s, 193° | - | - |
| 1777880471 | 7.78° C | 73% | - | 0 mm | 5.36 m/s, 219° | - | - |
| 1777880174 | 7.78° C | 73% | - | 0 mm | 6.26 m/s, 198° | - | - |
| 1777879876 | 7.78° C | 73% | - | 0 mm | 6.26 m/s, 200° | - | - |
| 1777879578 | 7.78° C | 73% | - | 0 mm | 5.36 m/s, 201° | - | - |
| 1777879280 | 7.78° C | 74% | - | 0 mm | 6.71 m/s, 218° | - | - |
| 1777878983 | 7.78° C | 74% | - | 0 mm | 6.26 m/s, 210° | - | - |
| 1777878683 | 7.78° C | 74% | - | 0 mm | 6.71 m/s, 208° | - | - |
| 1777878384 | 7.78° C | 74% | - | 0 mm | 5.36 m/s, 200° | - | - |
| 1777878087 | 7.78° C | 74% | - | 0 mm | 4.02 m/s, 217° | - | - |
| 1777877791 | 7.78° C | 74% | - | 0 mm | 5.81 m/s, 186° | - | - |
| 1777877789 | 7.78° C | 74% | - | 0 mm | 5.81 m/s, 186° | - | - |
| 1777877491 | 7.78° C | 74% | - | 0 mm | 4.47 m/s, 173° | - | - |
| 1777877194 | 7.78° C | 75% | - | 0 mm | 5.81 m/s, 198° | - | - |
| 1777876893 | 7.78° C | 75% | - | 0 mm | 6.26 m/s, 195° | - | - |
| 1777876297 | 7.78° C | 76% | - | 0 mm | 5.81 m/s, 198° | - | - |
| 1777875702 | 8.33° C | 76% | - | 0 mm | 5.36 m/s, 197° | - | - |
| 1777875404 | 8.33° C | 76% | - | 0 mm | 4.02 m/s, 201° | - | - |
* Rain latest hour (hover to see other rain measurements)
** Current wind speed in m/s (hover to see current wind gust speed)